This is the latest recevied weather packets stored in our database for station/object W5ADC. If no packets are shown the sender has not sent any weather packets the latest 1 day(s).
| Time | Temp. | Humidity | Pressure | Rain* | Wind** | Luminosity | Snow |
|---|---|---|---|---|---|---|---|
| 1836274838 | 27.78° C | 66% | 1012.3 hPa | 0 mm | 0.89 m/s, 154° | 0 W/m² | - |
| 1836274536 | 27.78° C | 66% | 1012.3 hPa | 0 mm | 0.89 m/s, 164° | 0 W/m² | - |
| 1836274390 | 27.78° C | 67% | 1012.3 hPa | 0 mm | 1.34 m/s, 178° | 0 W/m² | - |
| 1836274234 | 27.78° C | 65% | 1012.2 hPa | 0 mm | 1.34 m/s, 193° | 0 W/m² | - |
| 1836273928 | 27.78° C | 65% | 1012.3 hPa | 0 mm | 0.89 m/s, 134° | 0 W/m² | - |
| 1778045231 | 15.56° C | 81% | 1006.2 hPa | 0 mm | 2.68 m/s, 275° | 0 W/m² | - |
| 1778044930 | 16.11° C | 81% | 1005.9 hPa | 0 mm | 4.02 m/s, 31° | 0 W/m² | - |
| 1778044627 | 16.11° C | 81% | 1006 hPa | 0 mm | 2.68 m/s, 344° | 0 W/m² | - |
| 1778044323 | 16.11° C | 81% | 1005.9 hPa | 0 mm | 2.68 m/s, 323° | 0 W/m² | - |
| 1778044021 | 16.11° C | 81% | 1006.2 hPa | 0 mm | 1.34 m/s, 353° | 0 W/m² | - |
| 1778043718 | 16.11° C | 81% | 1005.7 hPa | 0 mm | 1.34 m/s, 314° | 0 W/m² | - |
| 1778043414 | 16.11° C | 81% | 1005.8 hPa | 0 mm | 1.79 m/s, 349° | 0 W/m² | - |
| 1778043111 | 16.11° C | 81% | 1005.9 hPa | 0 mm | 2.24 m/s, 15° | 0 W/m² | - |
| 1778042809 | 16.67° C | 80% | 1005.8 hPa | 0 mm | 1.34 m/s, 5° | 0 W/m² | - |
| 1778042506 | 16.67° C | 80% | 1005.8 hPa | 0 mm | 1.34 m/s, 326° | 0 W/m² | - |
| 1778042203 | 17.22° C | 80% | 1005.8 hPa | 0 mm | 1.79 m/s, 309° | 0 W/m² | - |
| 1778041901 | 17.22° C | 80% | 1005.7 hPa | 0 mm | 1.79 m/s, 19° | 0 W/m² | - |
| 1778041600 | 17.22° C | 80% | 1005.6 hPa | 0 mm | 1.79 m/s, 289° | 0 W/m² | - |
| 1778041297 | 17.22° C | 79% | 1005.5 hPa | 0 mm | 2.24 m/s, 42° | 0 W/m² | - |
| 1778040996 | 17.22° C | 79% | 1005.7 hPa | 0 mm | 0.89 m/s, 340° | 0 W/m² | - |
| 1778040692 | 17.22° C | 80% | 1005.2 hPa | 0 mm | 1.34 m/s, 2° | 0 W/m² | - |
| 1778040390 | 17.78° C | 80% | 1005.1 hPa | 0 mm | 4.02 m/s, 340° | 0 W/m² | - |
| 1778040086 | 17.78° C | 79% | 1005.3 hPa | 0 mm | 1.79 m/s, 243° | 0 W/m² | - |
| 1778039783 | 17.78° C | 80% | 1005.2 hPa | 0 mm | 2.24 m/s, 344° | 0 W/m² | - |
| 1778039479 | 17.78° C | 80% | 1005.4 hPa | 0 mm | 0.89 m/s, 46° | 0 W/m² | - |
* Rain latest hour (hover to see other rain measurements)
** Current wind speed in m/s (hover to see current wind gust speed)